Probability
0 0 0 0 0 0 0 0 0 0 0 1 3 10 18 22 27 30 27 20 18 18 19 22 27 29 28 28 28 27 26 25 25 24 21 18 16 16 15 13 12 10 8 8
0 0 0 0 0 0 0 0 0 0 1 2 5 12 21 25 28 30 27 23 24 26 27 30 34 34 31 31 31 31 28 27 25 23 20 18 16 15 14 13 13 11 9 8
0 0 0 0 0 0 1 1 1 1 2 4 9 15 22 26 28 31 31 30 33 35 35 38 40 40 36 35 36 35 32 29 26 22 19 17 16 14 13 13 14 14 11 10
0 0 0 0 0 0 2 3 3 4 5 6 9 14 19 24 28 31 35 38 40 40 40 40 42 43 41 39 40 40 36 33 29 25 21 18 15 14 14 15 15 14 13 12
0 0 0 0 0 0 2 4 5 6 7 8 9 11 17 22 26 30 35 39 42 42 42 42 42 44 45 46 46 44 40 36 32 29 25 20 15 14 14 14 14 14 14 14
0 0 1 1 1 1 1 4 10 13 13 11 11 13 19 26 29 30 33 36 39 41 42 42 43 45 47 49 49 47 42 36 33 30 28 23 17 14 13 12 11 12 13 14
0 1 3 4 4 5 7 13 20 24 23 19 17 20 28 34 34 32 32 34 37 40 41 42 44 45 46 46 47 46 42 37 34 31 28 24 21 18 15 12 11 12 14 14
2 3 7 11 12 14 19 26 31 32 30 26 24 27 34 38 38 35 34 37 41 44 44 42 42 44 46 44 42 42 40 38 36 32 26 23 23 21 18 14 12 12 14 13
10 11 15 19 20 21 25 31 33 31 29 28 29 30 33 37 39 39 39 43 48 50 48 43 40 42 44 40 37 36 37 36 34 29 24 22 22 22 20 17 13 12 12 12
20 21 24 25 24 22 23 27 29 27 26 27 30 31 34 37 40 43 44 45 49 50 49 44 40 40 40 37 34 32 32 32 29 24 20 20 21 21 20 18 15 12 11 12
25 25 27 29 26 22 22 25 28 28 26 27 30 33 36 39 40 40 41 42 43 45 46 45 43 39 36 35 33 30 27 27 25 21 18 18 19 19 18 16 13 11 11 10
24 25 27 27 24 22 23 26 29 30 28 28 30 32 35 37 37 34 33 35 37 39 42 42 41 37 33 33 32 29 26 24 23 20 18 17 18 17 14 11 7 6 6 5
23 24 25 24 23 23 24 26 30 32 31 30 31 31 31 32 31 27 24 27 30 33 35 37 36 33 30 29 31 30 28 24 21 18 16 15 16 17 13 8 4 3 2 1
23 23 23 23 24 25 26 27 30 32 31 29 29 29 28 27 25 20 16 20 25 28 31 33 32 30 26 26 29 31 29 23 18 16 13 12 14 16 14 10 8 6 2 1
22 22 21 21 21 23 24 25 27 29 28 27 25 25 25 25 22 17 15 18 23 27 29 31 30 28 25 25 27 29 26 21 16 14 13 12 12 13 14 13 12 10 5 2
20 20 20 18 16 15 16 17 19 22 23 22 21 20 20 21 20 20 21 23 26 29 31 31 29 27 25 24 24 24 21 16 13 14 14 12 11 12 13 14 13 11 6 3
17 17 17 15 12 11 11 11 11 13 15 15 15 14 15 16 18 23 26 27 28 30 31 30 29 28 25 22 22 22 18 13 10 12 14 12 11 12 14 14 12 9 6 4
13 13 13 12 10 10 10 8 7 7 7 8 9 10 12 13 16 21 24 25 25 26 26 25 26 27 25 22 21 22 18 13 11 12 13 11 9 11 13 11 9 8 8 6
10 12 13 12 10 8 7 6 5 5 5 5 7 8 10 11 13 16 19 20 19 19 20 21 22 24 24 20 19 20 19 14 13 13 13 9 9 10 11 10 9 9 9 7
9 11 12 12 9 6 4 5 6 6 5 5 5 6 7 10 12 14 17 19 19 18 16 17 20 23 23 18 15 17 18 14 13 13 12 9 9 10 10 9 9 9 9 8
7 8 10 10 8 5 4 5 6 6 6 4 4 4 6 8 11 13 16 18 18 16 14 14 19 21 20 16 13 14 15 13 12 12 11 10 9 9 9 9 9 10 9 9
5 5 5 5 5 5 5 4 5 6 6 5 4 4 4 5 8 10 12 13 12 11 12 14 15 15 13 12 12 14 14 12 11 11 10 9 8 8 8 8 9 10 10 9
5 4 3 2 2 4 4 4 5 6 7 7 7 6 4 5 6 6 7 8 7 7 9 11 10 7 6 8 12 15 15 13 11 11 10 9 9 9 9 9 9 10 9 8
4 4 3 2 2 3 4 5 6 7 8 9 9 7 5 5 4 4 4 5 5 6 7 6 3 2 3 6 10 13 14 14 12 10 9 10 10 10 10 10 9 8 6 5
3 3 3 3 3 4 5 6 7 8 8 9 9 8 6 5 4 3 3 3 4 5 4 3 1 1 3 4 5 7 9 11 11 10 9 9 9 8 8 8 7 5 4 3
2 3 3 4 4 5 6 6 7 7 7 8 8 7 6 5 4 4 3 3 4 4 4 4 3 3 3 3 3 4 6 9 10 9 9 8 8 7 6 6 5 3 2 1
3 3 4 5 5 6 6 6 6 6 6 7 7 6 5 5 4 4 3 4 4 4 6 7 6 4 3 2 4 6 7 9 10 10 9 9 8 7 6 6 4 2 1 1
Wind_Speed
10 6 9 12 14 15 16 15 13 11 10 7 4 3 3 4 5 6 8 9 10 10 10 10 9 9 9 9 9 10 9 9 8 8 7 7 6 5 4 4 4 4 3 3
11 10 10 12 14 15 16 15 15 13 10 3 1 2 3 4 5 7 8 9 10 10 10 10 10 10 10 9 9 10 10 9 8 8 8 7 6 6 5 4 4 4 3 3
11 11 11 15 14 15 14 13 14 13 8 3 3 3 4 4 5 6 7 9 9 10 10 10 10 10 10 10 10 9 9 9 9 9 8 7 7 6 6 5 5 4 3 3
9 10 15 8 4 9 11 10 9 8 5 4 4 4 3 3 4 4 6 7 8 9 9 10 10 10 10 10 11 10 10 10 9 9 8 8 7 6 6 5 4 4 3 4
9 13 12 6 5 7 9 8 5 7 5 3 3 4 4 3 2 3 3 5 6 7 9 10 10 10 10 10 10 10 10 10 9 9 9 8 8 7 6 5 4 4 4 4
10 12 12 6 4 3 7 8 2 4 4 4 6 7 3 3 2 2 3 4 5 7 8 9 9 10 10 9 9 9 9 9 9 8 8 8 8 7 6 5 5 4 4 3
12 11 7 2 2 5 10 3 1 1 2 4 4 3 2 2 2 3 4 4 5 6 7 7 8 9 9 9 9 8 8 8 8 8 8 8 7 6 6 5 5 4 4 4
10 12 6 3 4 4 1 2 1 1 1 1 0 1 2 2 3 4 4 5 5 5 6 6 7 8 8 7 8 8 9 9 8 8 7 7 7 6 6 6 6 5 5 4
4 2 4 2 1 2 1 1 1 1 0 0 1 2 2 2 3 4 4 4 4 5 6 5 6 7 8 7 7 8 9 9 8 8 7 7 8 8 7 6 5 5 5 5
3 3 2 1 1 1 2 2 2 1 1 1 1 2 2 2 3 3 3 3 4 5 6 5 6 6 6 6 7 8 9 8 8 7 7 7 6 6 6 6 5 5 5 4
5 4 2 1 1 2 1 1 0 1 1 1 2 2 2 2 3 3 3 3 3 4 5 5 5 5 6 7 7 8 8 7 7 7 6 6 5 3 4 3 2 3 4 4
4 3 3 1 2 2 1 0 0 1 1 1 2 2 2 2 2 2 2 2 3 3 4 4 5 5 5 6 7 7 7 7 6 6 6 6 5 4 3 1 3 2 1 1
3 2 2 2 2 1 1 1 1 0 0 1 1 2 2 1 1 1 2 2 3 3 3 4 4 5 5 6 6 7 7 6 5 5 6 6 6 6 5 3 3 2 3 3
3 3 3 2 1 1 1 1 1 1 1 1 1 1 2 1 1 1 2 2 2 3 3 4 4 4 5 5 6 6 6 6 5 5 6 6 6 6 6 6 6 5 4 6
3 4 3 2 2 2 2 1 1 1 1 1 0 1 1 1 1 2 2 2 3 3 3 3 4 4 4 5 6 6 5 5 4 4 5 5 5 5 5 5 5 4 5 5
3 3 3 3 2 2 2 1 1 0 0 0 0 0 1 1 1 2 3 3 4 3 3 3 4 4 5 5 6 5 4 4 4 5 5 5 5 5 5 5 5 4 5 5
4 4 3 2 1 1 1 1 1 1 1 1 1 1 1 2 2 2 2 2 3 3 3 3 3 3 5 5 6 4 5 5 6 5 5 5 5 4 4 5 5 5 4 4
4 3 3 2 2 1 1 1 1 1 1 1 1 1 1 2 2 2 2 2 3 3 3 3 3 4 5 5 5 4 5 5 6 5 5 4 4 4 4 4 5 5 4 5
3 3 2 2 2 2 2 2 1 1 1 1 2 2 1 2 2 2 2 2 3 3 3 3 4 4 4 4 4 4 4 5 5 5 5 5 5 5 5 5 5 5 4 4
4 3 2 2 2 2 3 2 1 1 1 1 2 1 1 1 2 2 2 2 1 1 3 3 4 4 4 4 4 4 4 5 5 5 5 5 5 5 5 5 5 4 4 4
3 3 2 2 3 3 2 2 2 2 1 1 2 2 2 2 2 2 2 2 2 2 3 4 4 3 3 3 5 4 4 5 5 5 5 4 4 4 4 4 4 4 4 4
3 3 3 3 3 2 2 2 2 2 2 2 2 3 2 2 3 3 2 1 1 2 2 3 3 3 3 3 3 3 4 4 4 4 4 4 4 4 4 4 4 4 4 4
2 2 3 3 3 2 2 2 2 2 2 2 3 3 2 2 2 2 2 1 2 2 2 1 3 6 4 4 3 3 3 4 4 4 4 4 4 3 3 4 3 3 4 3
1 2 2 2 3 3 3 2 2 2 3 3 3 2 2 2 2 1 1 2 3 3 2 3 6 5 4 3 3 3 3 4 4 4 3 3 3 3 2 3 3 3 3 3
1 1 2 2 2 2 2 2 2 3 3 2 2 2 2 2 1 1 1 2 3 3 3 5 7 6 5 3 3 3 3 3 3 3 3 3 3 3 3 3 3 3 3 3
1 1 1 2 2 2 2 2 2 2 2 2 1 1 1 1 1 1 1 2 3 3 2 3 5 5 4 3 3 3 3 3 4 4 3 3 3 3 3 3 4 3 3 2
1 2 2 2 2 2 2 2 2 2 1 1 1 1 1 1 1 1 1 2 2 2 2 2 3 3 3 3 3 3 2 2 3 3 3 2 2 2 2 2 2 2 2 2
Wind_Direction
245 239 220 215 213 214 227 238 246 242 245 241 229 214 195 182 175 175 171 170 173 174 167 163 160 159 162 162 162 161 161 161 158 156 153 151 150 146 142 140 132 120 116 111
226 220 225 230 225 222 227 235 242 249 248 265 206 197 192 190 185 182 180 176 173 171 166 164 162 160 159 159 160 161 159 156 153 155 156 155 150 145 141 136 129 128 124 114
222 210 221 227 222 223 226 231 239 242 242 223 221 217 207 199 196 191 186 180 175 172 169 166 165 160 160 159 159 159 157 156 157 158 155 153 149 144 144 143 141 138 133 120
223 207 226 224 212 228 228 231 239 248 248 236 238 230 211 187 192 192 187 181 176 168 163 162 161 161 159 157 158 160 161 160 160 160 155 151 149 146 146 145 145 142 136 128
225 221 223 206 201 218 225 225 236 246 241 225 227 219 192 153 174 183 183 174 172 169 163 157 158 158 156 157 160 164 165 164 164 163 156 154 153 151 151 150 149 152 143 140
224 230 227 202 166 218 228 220 219 253 245 220 214 231 185 107 110 133 145 155 162 162 157 155 155 154 158 160 164 169 168 167 164 162 160 157 154 155 154 155 157 159 144 149
228 229 225 116 159 203 219 196 69 257 244 229 235 296 64 102 114 124 131 144 149 149 148 151 155 156 157 159 165 167 164 163 160 159 158 154 151 153 155 160 156 154 148 154
222 227 210 113 190 216 15 35 17 324 267 254 70 83 110 108 123 132 134 137 141 142 141 147 157 159 154 161 164 162 160 159 155 157 160 152 152 155 157 159 162 165 166 171
233 229 70 65 43 30 357 292 311 294 284 182 157 126 122 129 129 131 134 134 138 140 142 149 158 163 157 155 160 158 156 156 154 156 159 158 163 162 167 176 184 179 180 180
216 181 149 90 17 350 316 295 290 267 218 202 165 141 144 140 132 134 136 138 142 146 149 151 157 162 157 154 160 157 156 157 158 162 167 168 179 179 183 184 188 188 190 189
217 200 197 220 317 340 345 335 284 159 152 161 154 151 145 139 142 147 144 148 154 158 155 153 155 157 154 153 161 160 160 163 166 169 170 173 179 179 194 183 191 202 201 198
219 206 225 196 308 330 330 296 185 158 140 142 157 153 140 133 129 138 148 158 162 160 159 157 155 156 155 159 166 165 168 173 175 175 171 176 170 163 76 95 116 120 15 275
269 271 292 265 283 288 251 259 255 237 189 169 147 136 120 115 128 143 169 179 178 172 172 168 164 162 162 169 174 175 177 177 181 179 178 185 184 181 173 151 136 160 183 188
241 233 232 240 255 264 255 239 120 97 58 46 94 111 111 119 147 178 197 199 194 185 178 173 174 172 168 171 178 180 179 175 188 186 188 189 191 190 187 186 184 184 183 184
241 242 234 229 232 227 216 184 129 99 66 37 91 118 137 173 195 196 200 199 194 189 184 188 184 182 179 177 181 185 186 181 187 188 192 191 192 193 191 197 195 183 173 168
234 216 208 207 216 223 212 201 186 239 285 307 293 271 245 218 208 195 194 193 192 184 186 205 196 186 183 184 182 182 178 167 185 189 188 189 193 197 194 194 194 192 193 180
218 214 209 201 211 247 253 256 254 273 284 280 267 270 243 217 198 190 189 190 188 179 184 189 184 176 179 185 184 182 170 163 185 195 192 192 195 199 198 196 195 196 200 183
241 244 231 221 240 257 254 268 282 283 282 273 247 217 213 218 215 201 190 181 170 162 170 175 164 169 177 184 186 182 174 171 188 197 192 193 196 199 200 201 202 203 194 175
222 227 230 237 250 256 256 260 278 294 277 243 231 215 219 218 205 193 179 177 176 174 166 151 155 183 176 175 181 182 180 177 187 194 193 183 198 202 200 201 203 205 201 187
208 206 219 235 247 256 259 255 260 246 231 222 220 213 225 215 194 185 182 189 189 157 148 151 175 182 173 170 196 188 186 185 189 188 188 191 198 199 201 204 206 205 202 203
205 211 221 230 241 252 260 261 251 239 223 225 217 218 218 211 210 199 207 192 154 151 159 167 185 174 168 163 197 198 191 188 186 184 183 189 194 198 202 206 206 204 202 204
213 222 230 237 238 247 251 251 244 224 208 211 218 222 216 210 202 200 205 221 156 133 184 187 181 141 145 173 198 202 194 186 186 184 183 190 197 200 201 205 209 208 206 202
216 222 228 226 226 228 230 234 232 214 209 219 225 224 233 248 240 210 191 171 169 157 200 176 111 119 148 188 194 197 193 190 193 192 190 191 197 202 203 208 210 206 204 203
220 224 229 232 221 214 224 238 238 223 223 230 226 218 227 230 223 211 167 141 149 166 192 117 127 144 190 209 199 198 193 193 195 199 200 195 191 197 202 202 206 209 206 212
239 241 231 232 228 227 223 229 231 220 216 216 210 203 223 243 253 233 181 156 146 171 162 146 157 177 204 208 200 200 204 201 200 204 198 201 197 189 192 198 207 215 214 213
240 248 240 248 260 259 240 232 234 225 214 205 214 222 224 216 215 202 185 171 168 173 181 162 166 185 204 201 198 203 204 187 187 206 209 203 205 197 190 196 205 214 213 210
212 208 214 231 235 247 254 247 246 242 229 211 213 223 218 197 183 178 187 184 170 173 178 179 180 185 189 187 182 183 185 189 188 187 188 198 207 203 192 199 209 207 211 206